Other Public Products
Issued by NWS Charleston, SC

Current Version | Previous Version | Text Only | Print | Product List | Glossary Off
Versions: 1 2 3 4 5 6 7 8 9 10 11 12 13 14 15 16 17 18 19 20 21 22 23 24 25 26 27 28 29 30 31 32 33 34 35 36 37 38 39 40 41 42 43 44 45 46 47 48 49 50

724
FPUS82 KCHS 262012
OPUCHS

TEST...KCHS/KSAV Gateway Observations...TEST
National Weather Service Charleston SC
400 PM EDT SAT MAY 26 2018

NOTE: "fair" indicates few or no clouds below 12,000 feet with no
significant weather and/or obstructions to visibility.

SCZ050-WAZ558-NCZ071-TXZ119-213-PAZ071-DCZ001-FLZ074-172-MI076-
NYZ176-178-MAZ016-IL014-TNZ027-NJZ106-GAZ044-MD014-262100-

...Gateway Observations for Charleston International...

CITY           SKY/WX    TMP DP  RH WIND       PRES   REMARKS
Chas Airport   PTSUNNY   83  70  64 SW15      29.95S
Seattle        PTSUNNY   64  45  49 W8        30.18R
Charlotte      PTSUNNY   84  72  65 SW16      29.92F
Dallas DFW     MOSUNNY   95  65  37 SE9       29.78F HX  97
Dallas Love    MOSUNNY   95  67  39 VRB3      29.79F HX  99
Philladelphia  LGT RAIN  83  71  67 W3        29.79S
Wash National  CLOUDY    85  69  58 SW10      29.83S
Baltimore      PTSUNNY   85  69  58 SW8       29.80S THUNDER
Miami          LGT RAIN  73  70  90 E20       29.90F
Detroit        LGT RAIN  77  66  68 S9        29.79F
Newark         PTSUNNY   89  65  44 SW9       29.77F HX  91
Laguardia      PTSUNNY   90  62  39 SW10      29.76F HX  90
J F K          PTSUNNY   79  69  71 S14       29.79F
Boston Logan   CLOUDY    87  55  33 W9        29.75S
Ft. Lauderdale LGT RAIN  73  72  96 SE22      29.89F
Chicago O`Hare FAIR      88  61  40 W8        29.75F
Chicago Midway FAIR      88  63  43 VRB3      29.75F
Houston Bush   PTSUNNY   92  72  51 SW6       29.80F HX  99
Houston Hobby  PTSUNNY   90  71  53 VRB3      29.80F HX  96
Nashville      LGT RAIN  72  69  90 SW7       29.89F
Atlanta        PTSUNNY   83  66  56 S6        29.90F

$$

GAZ044-118-TXZ119-213-NCZ071-DCZ001-MDZ014-506-PAZ021-071-NJZ106-
NYZ176-178-MAZ106-OHZ011-021-055-MIZ076-KYZ091-ILZ014-INZ047-
MNZ060-ONZ431-262100-

...Gateway Observations for Savannah International...

CITY           SKY/WX    TMP DP  RH WIND       PRES   REMARKS
Savannah Arpt  PTSUNNY   84  73  69 S9        29.94F HX  90
Atlanta        PTSUNNY   83  66  56 S6        29.90F
Charlotte      PTSUNNY   84  72  65 SW16      29.92F
Dallas DFW     MOSUNNY   95  65  37 SE9       29.78F HX  97
Houston Bush   PTSUNNY   92  72  51 SW6       29.80F HX  99
Wash National  CLOUDY    85  69  58 SW10      29.83S
Wash Dulles    PTSUNNY   83  72  69 S5        29.82F
Baltimore      PTSUNNY   85  69  58 SW8       29.80S THUNDER
Philadelphia   LGT RAIN  83  71  67 W3        29.79S
Newark         PTSUNNY   89  65  44 SW9       29.77F HX  91
Laguardia      PTSUNNY   90  62  39 SW10      29.76F HX  90
J F K          PTSUNNY   79  69  71 S14       29.79F
Boston         CLOUDY    87  55  33 W9        29.75S
Pittsburg      LGT RAIN  77  65  66 W7        29.86S
Akron          TSTM      75  66  73 SE8       29.84F
Cleveland      PTSUNNY   80  66  62 VRB6      29.82F
Cincinnati     PTSUNNY   81  67  62 SW20G29   29.82S THUNDER
Columbus       FAIR      84  66  53 MISG      29.80F
Detroit        LGT RAIN  77  66  68 S9        29.79F
Chicago O`Hare FAIR      88  61  40 W8        29.75F
Minneapolis    FAIR      93  55  27 W13       29.70S HX  91
Indianapolis   PTSUNNY   87  65  47 W14       29.79F
Toronto Canada PTSUNNY   81  59  47 S12G17    29.77F

$$




USA.gov is the U.S. government's official web portal to all federal, state and local government web resources and services.